Regional Weather Roundup
Issued by NWS

Home | Current Version | Previous Version | Text Only | Print | Product List | Glossary Off
Versions: 1 2 3 4 5 6 7 8 9 10 11 12 13 14 15 16 17 18 19 20 21 22 23 24 25 26 27 28 29 30 31 32 33 34 35 36 37 38 39 40 41 42 43 44 45 46 47 48 49 50

000
ASUS44 KMEG 230410
RWRTN
TENNESSEE HOURLY STATE WEATHER ROUNDUP
NATIONAL WEATHER SERVICE MEMPHIS TN
1100 PM CDT MON SEP 22 2014

TNZ002-004-019-021-049-052-054-088>092-230500-
WEST TENNESSEE

CITY           SKY/WX    TMP DP  RH WIND       PRES   REMARKS
MEMPHIS INTL   CLEAR     65  48  54 NE9       30.21R
NWS MEMPHIS      N/A     63 N/A N/A MISG        N/A
JACKSON        CLEAR     56  48  74 NE6       30.22S
DYERSBURG      CLEAR     57  41  54 NE5       30.24R
UNION CITY     CLEAR     52  48  87 CALM      30.23R
PARIS          CLEAR     50  45  81 CALM      30.24S
HUNTINGDON     CLEAR     53  45  74 NE5       30.23S
LEXINGTON      CLEAR     54  48  82 N5        30.22R
SAVANNAH       CLEAR     52  52 100 CALM      30.21R
$$

TNZ008-025-027-028-033-062-065-066-230500-
NORTH MIDDLE TENNESSEE

CITY           SKY/WX    TMP DP  RH WIND       PRES   REMARKS
NASHVILLE      CLEAR     57  48  72 N8        30.23S
DICKSON        CLEAR     54  45  71 NE7       30.23R
PORTLAND       CLEAR     52  46  82 CALM      30.23S
CLARKSVILLE    CLEAR     53  45  74 N5        30.25R
LEBANON        CLEAR     49  45  86 CALM      30.22R
SMYRNA         CLEAR     58  47  66 NE8       30.23S
MURFREESBORO   CLEAR     56  47  71 CALM      30.22R
COOKEVILLE     CLEAR     45  45 100 CALM      30.22S
LIVINGSTON     CLEAR     52  45  77 NE6       30.24
GALLATIN       CLEAR     56  48  74 NE7       30.24S
CROSSVILLE     CLEAR     54  45  71 NE7       30.24S
$$

TNZ061-075-076-078-094-096-097-230500-
SOUTH MIDDLE TENNESSEE

CITY           SKY/WX    TMP DP  RH WIND       PRES   REMARKS
LEWISBURG      CLEAR     51  45  80 CALM      30.20F
FAYETTEVILLE   CLEAR     54  45  71 NE9       30.19S
TULLAHOMA      CLEAR     57  45  62 NE6       30.21S
WINCHESTER     CLEAR     54  48  82 N7        30.20F
MCMINNVILLE    CLEAR     54  48  82 CALM      30.21F
COLUMBIA       CLEAR     54  50  87 CALM      30.20R
SHELBYVILLE    CLEAR     57  46  67 NE3       30.22R
$$

TNZ017-018-042-046-047-230500-
NORTHEAST TENNESSEE

CITY           SKY/WX    TMP DP  RH WIND       PRES   REMARKS
TRI CITIES     CLEAR     51  46  83 CALM      30.25R
ELIZABETHTON   CLEAR     46  46 100 CALM      30.25S
$$

TNZ012-013-036-069-073-074-230500-
CENTRAL EAST TENNESSEE

CITY           SKY/WX    TMP DP  RH WIND       PRES   REMARKS
KNOXVILLE      CLEAR     58  50  75 N7        30.20S
OAK RIDGE      CLEAR     56  49  77 E3        30.23S
GATLINBURG     CLEAR     52  50  93 CALM      30.22R
MORRISTOWN     CLEAR     57  48  72 NE7       30.24S
$$

TNZ083-085-099-230500-
SOUTHEAST TENNESSEE

CITY           SKY/WX    TMP DP  RH WIND       PRES   REMARKS
CHATTANOOGA    CLEAR     63  49  60 N12       30.19R
$$

SKY/WX REPORTED AS FAIR MEANS FEW OR NO CLOUDS BELOW
12 THOUSAND FEET.



USA.gov is the U.S. government's official web portal to all federal, state and local government web resources and services.